Find Raduga

NORAD ID: 12003 Int'l Des: 1980-081 Owner: GUKOSR Country: SU operational
MEOCIRCULAR

現在のビュー

3D地球を読み込み中...

About Raduga

Raduga (NORAD 12003) is a satellite launched Oct 5, 1980 by GUKOSR of SU. It operates in MEO, CIRCULAR orbit with a mass of 1965.00 kg.

次回通過

Passes for default location (London). Set your location on the main map for personalized predictions.

高度履歴

Loading altitude history...

軌道要素

1 12003U 80081A 26195.12512162 -.00000221 00000-0 00000+0 0 9991
2 12003 5.8843 288.9644 0011149 315.6927 61.1175 1.00299492123582
Epoch: Jul 14, 2026 • Age: 12 hours

現在のステータス

高度 35800.4 km
遠地点 / 近地点 N/A
速度 3.07 km/s
衛星直下点 -1.83°S, 31.41°W
打ち上げ日 Oct 5, 1980
運用期間 45.7 years
タイプ other

技術仕様

分類 Payload
質量 1965.00 kg
乾燥質量 1800.00 kg
総質量 1965.00 kg
長さ 5.50 m
直径 2.50 m
スパン 9.50 m
形状 Step Cyl + 2 Pan
製造者 NPOPM
バスタイプ Raduga
フェーズステータス In Orbit
所有者/国 GUKOSR/SU

Most Searched